Location: Amsterdam
(30.7274°N, 84.4357°W)
Time: 04:58:31
(UTC+00:00)

Courier 1B Rocket - Pass Details

Date: 08 February 2026
Orbit: 920 x 1201 km, 28.2° (Epoch: 5 March)

Event Time Altitude Azimuth Distance (km) Brightness Sun altitude
Rises 10:17:18 0° 274° (W) 4,057 - -27.7°
Reaches altitude 10° 10:20:28 10° 264° (W) 3,112 - -27.0°
Exits shadow 10:26:13 31° 218° (SW) 1,975 6.3 -25.8°
Maximum altitude 10:27:07 31° 205° (SSW) 1,948 6.3 -25.6°
Drops below altitude 10° 10:33:45 10° 146° (SSE) 3,101 8.1 -24.2°
Sets 10:36:55 0° 137° (SE) 4,040 8.9 -23.5°
